Location: Newark
(40.9833°N, 0.0333°W)
Time: 01:23:29
(UTC+00:00)

Altair - Pass Details

Date: 31 October 2020
Orbit: 1502 x 1682 km, 47.2° (Epoch: 02 December)

Event Time Altitude Azimuth Distance (km) Brightness Sun altitude
Rises 06:40:35 0° 271° (W) 4,662 9.4 1.0°
Reaches altitude 10° 06:43:39 10° 275° (W) 3,697 8.9 1.6°
Maximum altitude 06:52:54 61° 355° (N) 1,749 7.8 3.2°
Drops below altitude 10° 07:02:31 10° 75° (ENE) 3,835 10.5 4.9°
Sets 07:05:46 0° 79° (E) 4,846 11.1 5.4°
